Tracking 30995 objects as of 5-Jul-2025
HD Live streaming from Space Station
objects crossing your sky now

SL-14 R/B

Track SL-14 R/B now!
10-day predictions


NORAD ID: 12786
Int'l Code: 1981-082B
Perigee: 604.3 km
Apogee: 625.7 km
Inclination: 82.5 °
Period: 96.9 minutes
Semi major axis: 6986 km
RCS: 3.6609 m2 (large)
Launch date: August 24, 1981
Source: Commonwealth of Independent States (former USSR) (CIS)
Launch site: PLESETSK MISSILE AND SPACE COMPLEX (PKMTR)

Note: This is a ROCKET BODY
Your satellite tracking list
STARLINK-1592
Track 1 satellite(s)




NASA's NSSDC Master Catalog

Two Line Element Set (TLE):
1 12786U 81082B   25186.58229743  .00000325  00000-0  33708-4 0  9990
2 12786  82.4874  74.3881 0015305 261.5839  98.3643 14.86822223350142
Source of the keplerian elements: AFSPC